Probability
0 1 1 0 0 1 1 1 0 1 2 1 0 0 0 0 0 0 0 0 0 0 0 0 0 0 0 0 0 0 0 0 0 0 0 0 0 0 0 0 0 0 0
1 1 2 1 1 1 1 0 0 1 2 1 0 0 0 0 0 0 0 0 0 0 0 0 0 0 0 0 0 0 0 0 0 0 0 0 0 0 0 0 0 0 0
0 1 2 2 1 0 0 0 0 0 1 1 0 0 0 0 0 0 0 0 0 0 0 0 0 0 0 0 0 0 0 0 0 0 0 0 0 0 0 0 0 0 0
0 0 1 1 1 0 0 0 0 0 0 0 0 0 0 0 0 0 0 0 0 0 0 0 0 0 0 0 0 0 0 0 0 0 0 0 0 0 0 0 0 0 0
0 0 0 0 0 0 0 1 1 1 0 0 0 0 0 0 0 0 0 0 0 0 0 0 0 0 0 0 0 0 0 0 0 0 0 0 0 0 0 0 0 0 0
0 0 0 0 0 0 0 1 1 1 0 0 0 0 0 0 0 0 0 0 0 0 0 0 0 0 0 0 0 0 0 0 0 0 0 0 0 0 0 0 0 0 0
0 0 0 0 0 0 1 1 1 0 0 0 0 0 0 0 0 0 0 0 0 0 0 0 0 0 0 0 0 0 0 0 0 0 0 0 0 0 0 0 0 0 0
0 0 0 0 0 0 1 2 1 0 0 0 0 0 0 0 0 0 0 0 0 0 0 0 0 0 0 0 0 0 0 0 0 0 0 0 0 0 0 0 0 0 0
0 0 0 0 0 0 1 1 1 0 0 0 0 0 0 0 0 0 0 0 0 0 0 0 1 1 0 0 0 0 0 0 0 0 0 0 0 0 0 0 0 0 0
0 0 0 0 0 0 0 1 1 0 0 0 0 0 0 0 0 0 0 0 0 1 0 0 1 1 1 0 0 0 0 0 0 0 0 0 0 0 0 0 0 0 0
0 0 0 0 0 0 0 0 0 0 0 0 0 0 0 0 0 0 0 0 0 0 0 0 1 1 1 0 0 0 0 0 0 0 0 0 0 0 0 0 0 0 0
0 0 0 0 0 0 0 0 0 0 0 0 0 0 0 0 0 0 0 0 0 0 0 0 0 0 0 0 0 0 0 0 0 0 0 0 0 0 0 0 0 0 0
0 0 0 0 0 0 0 0 0 0 0 0 0 0 0 0 0 0 0 0 0 0 0 0 0 0 0 0 0 0 0 0 0 0 0 0 0 0 0 0 1 1 0
0 0 0 0 0 0 0 0 0 0 0 0 0 0 0 0 0 0 0 0 0 0 0 0 0 0 0 0 0 0 0 0 0 0 0 0 0 0 0 0 1 2 1
0 0 0 0 0 0 0 0 0 0 0 0 0 0 0 0 0 0 0 0 0 0 0 0 0 0 0 0 0 0 0 0 0 0 0 0 0 0 0 0 1 2 1
0 0 0 0 0 0 0 0 0 0 0 0 0 0 0 0 0 0 0 0 0 0 0 0 0 0 0 0 0 0 0 0 0 0 0 0 0 0 0 0 1 2 2
0 0 0 0 0 0 0 0 0 0 0 0 0 0 0 0 0 0 0 0 0 0 0 0 0 0 0 0 0 0 0 0 0 0 0 0 0 0 1 1 2 2 3
1 1 0 0 0 0 0 0 0 0 0 0 0 0 0 0 0 0 0 0 0 0 0 0 0 0 0 0 0 0 0 0 0 0 0 0 0 0 1 1 1 2 3
3 2 1 1 0 0 0 0 0 0 0 0 0 0 0 0 0 0 0 0 0 0 0 0 0 0 0 0 0 0 0 0 0 0 0 1 1 0 1 1 1 2 2
3 4 3 2 1 0 0 0 0 0 0 0 0 0 0 0 0 0 0 0 0 0 0 0 0 0 0 0 0 0 0 0 0 0 0 1 1 1 0 1 2 2 2
2 3 3 2 1 0 0 0 0 0 0 0 0 0 0 0 0 0 0 0 0 0 0 0 0 0 0 0 0 0 0 0 0 0 1 2 2 2 2 2 3 3 3
2 2 1 1 0 0 0 0 0 0 0 0 0 0 0 0 0 0 0 0 0 0 0 0 0 0 0 0 0 0 0 0 0 0 2 2 2 3 3 3 3 3 3
3 3 2 1 0 0 0 0 0 0 0 0 0 0 0 0 0 0 0 0 0 0 0 0 0 0 0 0 0 0 0 0 0 0 1 2 2 2 3 3 3 3 3
3 3 3 2 1 1 0 0 0 0 0 0 0 0 0 0 0 0 0 0 0 0 0 0 0 0 0 0 0 0 0 0 0 0 0 0 0 1 1 2 3 3 3
5 5 4 4 3 2 0 0 0 0 0 0 0 0 0 0 0 0 0 0 0 0 0 0 0 0 0 0 0 0 0 0 0 0 0 0 0 0 0 1 2 3 3
7 7 6 6 5 2 0 0 0 0 0 0 0 0 0 0 0 0 0 0 0 0 0 0 0 0 0 0 0 0 0 0 0 0 0 0 0 0 0 1 2 3 3
Wind_Speed
3 4 12 13 14 14 15 16 16 16 16 16 15 15 15 14 14 13 13 12 12 12 12 12 11 11 11 11 11 11 10 10 10 11 11 11 10 11 11 12 11 9 12
5 5 13 13 14 14 14 15 15 15 15 15 14 14 14 13 13 12 12 12 12 11 11 11 11 11 11 10 10 10 10 9 9 9 10 9 10 10 10 11 10 7 11
7 5 9 13 13 13 13 13 14 15 14 14 14 13 13 12 12 12 12 11 11 11 11 11 10 10 10 10 9 9 8 8 8 9 8 5 6 9 9 10 11 11 11
7 5 7 13 13 13 12 13 13 14 14 13 13 12 12 12 11 11 11 11 10 10 10 9 9 9 9 9 8 7 7 7 7 8 4 4 4 8 9 9 9 10 10
6 5 7 13 13 12 12 12 12 13 12 12 12 12 11 11 10 10 10 10 9 9 9 9 8 8 8 8 7 6 6 6 6 5 3 3 3 6 8 9 9 9 9
6 4 7 12 12 12 11 11 11 12 11 11 11 10 10 9 9 9 9 8 8 8 8 8 7 7 7 6 6 5 5 5 5 3 3 3 2 5 7 8 8 8 9
5 4 5 11 11 11 10 10 10 10 10 10 9 9 9 8 8 7 7 7 6 6 6 6 6 6 5 4 4 4 4 5 4 3 2 2 3 5 7 7 8 8 8
6 4 4 10 10 10 10 10 9 9 9 8 8 8 8 7 6 6 6 5 5 5 4 4 4 4 3 3 3 3 3 4 3 3 2 2 4 5 7 7 8 8 8
5 4 3 4 6 8 8 8 8 8 8 7 7 6 6 6 5 5 4 4 3 3 3 3 3 2 2 2 2 2 2 3 3 2 2 2 4 6 7 7 8 8 7
4 4 3 3 2 3 3 7 7 7 7 6 6 5 5 5 4 4 3 2 2 1 1 2 1 1 0 1 1 1 2 3 2 2 2 2 5 6 7 7 8 7 7
4 3 3 2 2 2 2 4 5 5 5 4 3 4 3 2 2 1 1 1 1 1 1 1 1 1 1 1 0 1 2 1 2 2 2 4 6 7 7 8 8 8 8
5 3 3 2 2 2 2 1 1 1 1 1 1 1 1 1 1 1 1 1 1 1 2 2 3 3 2 1 1 1 1 2 2 2 3 6 7 8 8 8 8 8 8
4 4 4 3 2 2 1 1 1 1 1 1 1 1 1 1 1 1 1 2 2 2 2 3 3 2 1 0 0 0 1 1 1 2 3 6 7 8 9 8 8 8 8
4 4 3 3 2 2 1 1 1 1 1 1 1 1 1 0 0 1 1 1 1 1 2 2 1 2 1 1 1 1 1 1 2 2 3 7 8 8 9 9 9 9 9
5 5 4 4 3 2 2 1 2 2 1 1 1 1 2 1 1 0 1 1 1 1 1 1 1 2 2 1 1 1 2 2 3 3 2 7 8 8 9 9 9 9 9
6 6 5 5 4 3 2 2 2 2 1 1 1 2 2 2 1 1 1 1 1 1 1 1 1 1 1 1 1 2 2 2 3 3 3 4 7 8 9 10 10 10 9
6 6 5 5 4 4 3 3 2 1 1 1 1 2 2 2 2 1 1 1 2 1 1 1 1 1 1 1 2 2 2 3 3 3 3 3 3 7 9 10 10 10 10
6 6 6 6 5 5 3 3 1 1 2 2 2 1 2 2 2 2 1 2 1 1 0 1 0 0 1 1 1 2 1 2 3 3 3 3 3 3 6 10 10 10 10
7 7 6 5 5 5 4 2 2 1 2 2 2 2 2 3 3 2 1 2 1 0 0 1 0 0 1 1 2 1 1 1 2 2 3 4 4 4 4 6 9 10 11
6 6 6 5 5 4 3 2 1 0 1 1 2 2 3 2 3 2 2 2 1 0 0 1 1 0 1 1 2 2 2 2 2 2 3 3 3 5 5 5 5 6 10
6 6 6 6 5 4 3 2 2 2 1 1 2 2 3 3 3 3 2 1 1 1 1 1 0 0 1 0 1 2 3 2 1 2 2 2 3 4 4 5 4 4 4
7 7 6 6 5 5 4 3 2 2 1 1 1 1 2 3 3 3 3 2 1 1 1 1 1 0 0 0 1 1 3 3 2 1 1 2 2 2 4 4 4 5 4
8 8 8 7 6 5 4 2 2 1 1 0 1 1 2 2 2 2 3 2 2 2 1 2 1 1 1 0 1 1 1 2 3 2 2 1 2 2 2 3 4 4 5
9 8 7 6 6 5 5 4 4 3 3 3 2 1 1 2 2 2 3 3 2 2 2 3 2 2 2 1 1 1 1 2 1 2 3 2 2 2 2 2 3 3 4
8 7 6 5 5 5 5 6 5 3 3 2 1 2 2 1 2 2 2 2 3 2 3 3 2 2 2 2 1 1 1 1 1 1 3 3 3 2 2 2 2 2 3
6 6 6 6 5 5 5 5 5 5 4 2 2 2 2 1 1 2 2 3 3 3 3 3 3 3 3 2 2 2 2 1 2 2 3 3 3 3 3 2 2 2 2
Wind_Direction
133 134 124 116 111 108 108 110 111 111 111 111 111 111 111 112 112 112 112 112 110 109 109 108 107 107 106 107 108 108 109 112 115 117 116 114 116 117 115 113 112 113 116
138 133 126 120 116 111 110 110 112 111 111 111 111 110 111 112 112 111 111 111 111 110 108 108 108 108 109 108 107 107 108 111 115 117 117 115 115 118 119 118 119 121 122
128 127 126 123 118 115 113 112 112 112 113 113 113 113 112 112 111 110 110 112 111 111 110 110 109 110 110 109 107 107 107 111 117 116 108 102 116 123 125 126 127 127 126
127 122 127 127 122 119 117 116 116 116 116 116 116 115 114 113 112 110 110 111 109 110 110 111 110 112 111 108 107 107 110 114 115 111 96 100 117 130 131 132 131 132 132
118 119 134 130 127 124 122 120 119 119 118 117 116 115 115 113 112 110 110 112 111 111 113 113 112 112 111 111 108 107 114 118 120 105 97 94 99 133 136 137 137 139 139
117 122 139 132 130 127 126 125 123 123 121 119 117 116 115 115 115 112 111 111 112 113 113 114 114 113 112 111 110 109 113 120 113 104 112 118 124 143 142 143 144 146 146
122 123 140 136 135 134 132 129 128 127 124 122 119 117 119 118 119 116 113 113 112 110 111 113 115 115 113 112 112 110 113 124 116 120 128 138 152 154 149 149 151 150 151
131 131 140 143 141 142 140 137 135 133 131 127 124 122 122 121 121 118 115 117 116 112 112 115 115 113 112 109 109 110 119 124 125 130 136 152 167 162 157 154 154 155 157
129 129 130 141 146 148 146 145 144 140 138 135 132 131 127 123 122 122 121 123 123 117 122 121 119 109 98 96 105 114 145 133 123 139 157 159 176 172 167 163 162 162 163
127 130 132 125 120 130 148 157 155 151 146 145 143 142 137 133 128 131 128 140 143 143 154 151 143 120 66 78 106 115 145 122 136 156 163 182 185 179 177 175 173 172 173
147 143 140 130 123 129 151 175 164 160 156 151 152 148 123 71 64 86 131 162 177 219 255 251 295 326 34 47 1 103 127 134 157 175 181 199 197 190 187 185 183 185 186
170 167 157 152 149 146 175 135 109 121 116 102 81 93 80 74 49 25 328 292 301 315 328 346 354 3 30 24 348 33 121 170 178 192 202 209 208 202 197 194 193 195 196
177 180 174 172 163 156 140 122 109 93 102 106 131 119 96 67 24 11 3 344 347 354 7 11 16 13 20 347 300 246 207 198 202 209 212 218 215 211 206 203 202 204 206
174 189 180 173 170 179 170 165 145 144 148 170 187 151 136 131 1 348 358 326 338 354 353 354 350 340 334 294 229 233 222 214 216 212 222 223 216 217 214 212 212 212 212
183 189 187 176 181 185 178 195 176 183 184 186 194 190 180 178 213 304 329 324 325 324 327 331 336 335 335 333 293 246 239 229 229 219 224 225 221 222 222 222 222 220 220
191 191 185 181 183 177 178 186 189 184 182 170 203 213 193 184 193 192 294 300 296 291 292 286 296 307 318 317 297 269 258 248 236 226 223 231 231 227 226 229 227 225 224
189 184 183 185 176 175 185 194 185 182 171 176 209 215 199 189 194 187 236 275 277 279 293 300 312 322 305 304 302 291 269 253 243 231 224 224 237 235 230 232 231 230 231
178 179 188 190 177 181 185 188 182 183 189 197 206 210 210 202 193 190 214 256 270 276 322 293 301 332 319 314 304 302 294 271 255 237 222 222 227 235 237 237 233 230 232
182 181 184 187 180 183 178 173 182 183 204 209 205 211 216 211 194 189 218 245 249 232 315 277 300 215 288 310 298 295 296 278 266 250 235 231 232 234 237 245 239 231 232
181 182 183 181 180 166 154 145 129 188 224 224 218 221 215 211 197 189 219 238 208 192 237 241 250 264 246 288 309 319 304 284 265 254 246 238 237 239 238 240 240 238 237
176 183 185 182 178 162 156 164 172 212 225 231 230 230 224 216 203 191 219 227 199 198 242 244 207 296 328 343 9 336 321 297 272 253 258 251 246 243 239 235 233 234 240
182 187 189 190 182 180 180 170 174 175 197 214 242 248 228 212 207 209 205 212 206 194 255 252 183 147 312 84 103 23 339 335 329 306 284 260 267 258 249 239 227 228 233
187 190 193 192 189 188 177 147 127 97 56 20 241 242 237 217 215 219 205 197 201 199 228 239 201 168 241 280 155 147 152 280 308 313 299 299 298 274 270 263 241 234 230
196 190 188 187 186 186 172 169 173 182 200 216 216 229 249 224 216 211 206 196 200 207 228 238 206 192 191 228 247 208 204 194 234 311 313 306 302 289 281 270 255 238 227
191 186 184 181 186 184 179 180 182 196 208 212 209 225 245 249 236 226 211 196 202 215 229 232 211 194 197 197 203 197 199 199 208 220 291 314 315 291 281 279 263 244 231
181 180 175 179 192 186 181 182 188 198 199 196 213 222 235 239 241 232 212 206 212 221 229 229 218 200 205 201 198 189 189 196 205 202 243 277 291 291 286 280 271 256 241